Regional Weather Roundup
Issued by NWS New Orleans/Baton Rouge, LA

Home | Current Version | Previous Version | Text Only | Print | Product List | Glossary On
Versions: 1 2 3 4 5 6 7 8 9 10 11 12 13 14 15 16 17 18 19 20 21 22 23 24 25 26 27
000
ASUS44 KLIX 100913
RWRLIX
NEW ORLEANS REGIONAL WEATHER ROUNDUP
NATIONAL WEATHER SERVICE NEW ORLEANS LA
300 AM CST SAT DEC 10 2016

NOTE: "FAIR" INDICATES FEW OR NO CLOUDS BELOW 12,000 FEET WITH NO
      SIGNIFICANT WEATHER AND/OR OBSTRUCTIONS TO VISIBILITY.
      SKY/WX - SKY CONDITION AND SIGNIFICANT WEATHER.
      TMP - AIR TEMPERATURE.     DP    - DEWPOINT TEMPERATURE.
      RH  - RELATIVE HUMIDITY.   PRES  - PRESSURE.
      HI  - HEAT INDEX.          WCI   - WIND CHILL INDEX.

*  THESE STATIONS ARE NOT NWS OR FAA STATIONS AND ARE NOT UNDER
   NWS QUALITY CONTROL.

LAZ038-040-048-061>063-065>067-069-101000-
SOUTHEAST LOUISIANA

CITY           SKY/WX    TMP DP  RH WIND       PRES   REMARKS
N.O. AUDUBON   NOT AVBL
N.O. INTL ARPT CLEAR     42  28  57 E10G17    30.52R
N.O. LAKEFRONT CLEAR     42  28  57 E18       30.53R
N.O. DOWNTOWN*   N/A     40  24  53 NE9       30.53R WCI  34
RESERVE*         N/A     40  26  58 NE6       30.53R
SLIDELL        PTCLDY    30  26  85 N3        30.53R
BATON ROUGE    CLEAR     32  25  75 NE6       30.54S WCI  26
BOOTHVILLE     CLEAR     45  36  70 NE10G20   30.48F
BELLE CHASSE   CLEAR     39  27  62 N7        30.52R WCI  34
BOGALUSA*        N/A     32  24  74 N3        30.55R
GALLIANO*      SUNNY     42  29  61 NE6       30.50S
NEW ROADS*       N/A     31  26  80 N6        30.55S WCI  25
GONZALES*        N/A     32  27  81 N5        30.53S WCI  27
HAMMOND*       CLEAR     32  25  74 CALM      30.54R
HOUMA*         CLEAR     38  28  66 NE9       30.51S WCI  31
PORT FOURCHON* SUNNY     46  34  61 NE16      30.48S

$$

MSZ070-080>082-101000-
SOUTHERN MISSISSIPPI

CITY           SKY/WX    TMP DP  RH WIND       PRES   REMARKS
MCCOMB         CLEAR     32  21  64 N6        30.52F WCI  26
GULFPORT       CLEAR     35  22  58 NE7       30.51F WCI  29
BILOXI         CLEAR     34  23  65 NE9       30.51F WCI  26
PASCAGOULA     PTCLDY    30  22  72 N6        30.52F WCI  24

$$

COASTAL OBSERVATIONS
LAKE AND NEARSHORE STATIONS

STATION/POSITION TIME  TEMP    WIND        PRES    WAVE
                       AIR SEA DIR/SP/G            HT/PER
                 (UTC) (F)     (DEG/KT/KT) (MB)    (FT/S)
PASCAGOULA       0848   35      10/  8/ 11 1032.7
WAVELAND YACHT   0836   37 53   60/ 13/ 14 1033.3
GRAND ISLE       0848   46 59   50/ 12/ 18 1032.1
SOUTHWEST PASS   0848           30/ 19/ 23   N/A
NEW CANAL        0848   43 55   70/ 18/ 22 1032.3
SHELL BEACH      0848   43 54   50/ 18/ 20 1032.8

OFFSHORE STATIONS

STATION/POSITION TIME  TEMP    WIND        PRES    WAVE
                       AIR SEA DIR/SP/G            HT/PER
                 (UTC) (F)     (DEG/KT/KT) (MB)    (FT/S)
64 S DAUPHIN ISL 0850   54 74   30/ 16/ 21 1031.7    5/ 6

$$





USA.gov is the U.S. government's official web portal to all federal, state and local government web resources and services.